User: anonymous   Login
Location: Wildlife_Club
(35.6000°N, 81.4330°W)
Time: 16:33:43
(UTC-05:00)
Language:

Cosmos 1782 - Orbit

View from above orbital plane
View from above orbital plane
View from above satellite
View from above satellite

Ground track
Ground track

The orbit data is extracted from the following two-line orbital elements,

1 16986U 86074A   15029.59090837  .00003539  00000-0  25234-3 0  9565
2 16986 082.5051 246.1330 0013311 070.5110 289.7553 15.04217564539994
Epoch (UTC): 29 January 2015 14:10:54
Eccentricity: 0.0013311
inclination: 82.5051°
perigee height: 544 km
apogee height: 563 km
right ascension of ascending node: 246.1330°
argument of perigee: 70.5110°
revolutions per day: 15.04217564
mean anomaly at epoch: 289.7553°
orbit number at epoch: 53999

The dashed part of the orbit path shows where the satellite is in the earth's shadow,  

DLR